"startDT [UTC]","vpos","CH4 [ppm]","stdev(CH4) [ppm]","CO2 [ppm]","stdev(CO2) [ppm]","H2O [ppm]","stdev(H2O)","p_LGR [torr]","T_LGR [C]","mt1_LGR [us]","mt2_LGR [us]","T_ECpre [C]","T_EC1 [C]","T_EC2 [C]","p_inlet [hPa]","p_in [hPa]","p_out [hPa]","T_inlet [C]","RH_inlet [%]","dwpt_inlet [C]","T_vent [C]","RH_vent [%]","dwpt_vent [C]","flow_vent [l min-1]","flow_inlet [l min-1]","dwpt_sample [C]","T_room [C]"
2012-03-04 00:00:00,0.0,1.9025,0.0010,402.57,0.26,-1.0,0.0,138.23,23.36,24.57,36.24,0.04,-272.73,-272.73,-46,548,-935,18.3,0.8,-40.8,18.4,0.9,-40.1,5.73,2.52,-36.7,22.9
2012-03-04 00:01:00,0.0,1.9021,0.0009,402.40,0.28,-1.0,0.0,138.24,23.36,24.58,36.25,0.04,-272.73,-272.73,-46,549,-935,18.3,0.8,-40.7,18.4,0.9,-40.0,5.73,2.39,-36.8,22.9
2012-03-04 00:02:00,0.0,1.9031,0.0010,402.77,0.32,-1.0,0.0,138.24,23.36,24.57,36.25,0.04,-272.73,-272.73,-47,548,-935,18.3,0.8,-40.7,18.4,0.9,-40.1,5.73,2.48,-36.7,22.9
2012-03-04 00:03:00,0.0,1.9024,0.0008,402.63,0.28,-1.0,0.0,138.24,23.36,24.58,36.24,0.04,-272.73,-272.73,-46,549,-935,18.3,0.8,-40.7,18.4,0.9,-40.1,5.73,2.45,-36.7,22.9
2012-03-04 00:04:00,0.0,1.9021,0.0008,402.41,0.35,-1.0,0.0,138.23,23.36,24.58,36.26,0.04,-272.73,-272.73,-46,549,-935,18.3,0.8,-40.7,18.4,0.9,-40.1,5.73,2.42,-36.7,22.9
2012-03-04 00:05:00,0.0,1.9022,0.0009,402.33,0.29,-1.0,0.0,138.24,23.36,24.57,36.25,0.04,-272.73,-272.73,-46,549,-935,18.3,0.8,-40.5,18.4,0.9,-40.0,5.73,2.50,-36.7,22.9
2012-03-04 00:06:00,0.0,1.9022,0.0007,402.51,0.29,-1.0,0.0,138.23,23.36,24.58,36.25,0.04,-272.73,-272.73,-46,549,-935,18.3,0.8,-40.4,18.4,0.9,-39.8,5.73,2.38,-36.8,22.9
2012-03-04 00:07:00,0.0,1.9025,0.0009,402.54,0.30,-1.0,0.0,138.24,23.36,24.58,36.25,0.04,-272.73,-272.73,-47,548,-935,18.4,0.8,-40.4,18.4,0.9,-39.7,5.73,2.52,-36.8,23.0
2012-03-04 00:08:00,0.0,1.9022,0.0009,402.65,0.24,-1.0,0.0,138.23,23.36,24.58,36.25,0.04,-272.73,-272.73,-46,549,-935,18.3,0.9,-40.0,18.4,0.9,-39.5,5.73,2.38,-36.8,22.9
2012-03-04 00:09:00,0.0,1.9021,0.0008,402.49,0.29,-1.0,0.0,138.24,23.36,24.58,36.25,0.04,-272.73,-272.73,-46,549,-935,18.3,1.0,-38.8,18.4,1.1,-38.2,5.73,2.50,-36.8,22.9
2012-03-04 00:10:00,0.0,1.9022,0.0008,402.59,0.27,-1.0,0.0,138.23,23.36,24.58,36.25,0.04,-272.73,-272.73,-47,549,-935,18.4,0.9,-39.7,18.4,1.0,-39.1,5.73,2.42,-36.8,22.9
2012-03-04 00:11:00,0.0,1.9029,0.0008,402.64,0.27,-1.0,0.0,138.23,23.37,24.58,36.25,0.04,-272.73,-272.73,-46,549,-935,18.4,0.9,-40.0,18.4,0.9,-39.5,5.73,2.45,-36.8,23.0
2012-03-04 00:12:00,0.0,1.9029,0.0007,402.67,0.34,-1.0,0.0,138.23,23.37,24.58,36.25,0.04,-272.73,-272.73,-47,549,-935,18.4,0.9,-40.1,18.4,0.9,-39.5,5.73,2.48,-36.4,23.0
2012-03-04 00:13:00,0.0,1.9035,0.0008,403.09,0.32,-1.0,0.0,138.23,23.37,24.57,36.25,0.04,-272.73,-272.73,-46,549,-935,18.4,0.9,-39.8,18.5,0.9,-39.4,5.73,2.40,-36.3,23.0
2012-03-04 00:14:00,0.0,1.9035,0.0008,403.06,0.30,-1.0,0.0,138.23,23.38,24.58,36.24,0.04,-272.73,-272.73,-46,549,-935,18.4,0.9,-39.7,18.5,1.0,-39.2,5.73,2.51,-36.3,23.0
2012-03-04 00:15:00,0.0,1.9034,0.0007,402.97,0.38,-1.0,0.0,138.23,23.38,24.57,36.25,0.04,-272.73,-272.73,-47,549,-935,18.4,0.9,-40.2,18.5,0.9,-39.6,5.73,2.38,-36.3,23.0
2012-03-04 00:16:00,0.0,1.9026,0.0008,402.52,0.31,-1.0,0.0,138.23,23.38,24.58,36.24,0.04,-272.73,-272.73,-46,549,-935,18.4,0.8,-40.3,18.5,0.9,-39.7,5.73,2.53,-36.3,23.1
2012-03-04 00:17:00,0.0,1.9026,0.0009,402.55,0.27,-1.0,0.0,138.23,23.38,24.58,36.25,0.04,-272.73,-272.73,-47,549,-935,18.4,1.0,-39.0,18.5,1.0,-38.5,5.73,2.38,-36.3,23.1
2012-03-04 00:18:00,0.0,1.9027,0.0008,402.58,0.32,-1.0,0.0,138.23,23.38,24.58,36.25,0.04,-272.73,-272.73,-47,549,-935,18.4,1.0,-39.0,18.5,1.0,-38.6,5.73,2.50,-36.3,23.0
2012-03-04 00:19:00,0.0,1.9029,0.0007,402.60,0.31,-1.0,0.0,138.23,23.38,24.58,36.25,0.04,-272.73,-272.73,-46,549,-935,18.4,1.3,-36.0,18.5,1.4,-35.3,5.73,2.42,-36.3,23.1
2012-03-04 00:20:00,0.0,1.9027,0.0008,402.59,0.25,-1.0,0.0,138.23,23.38,24.58,36.24,0.04,-272.73,-272.73,-47,549,-935,18.4,1.0,-39.2,18.5,1.0,-38.6,5.73,2.44,-36.3,23.1
2012-03-04 00:21:00,0.0,1.9031,0.0008,402.47,0.28,-1.0,0.0,138.23,23.38,24.57,36.25,0.04,-272.73,-272.73,-46,549,-935,18.4,0.9,-39.8,18.5,0.9,-39.2,5.73,2.48,-36.3,23.1
2012-03-04 00:22:00,0.0,1.9026,0.0007,402.48,0.28,-1.0,0.0,138.23,23.39,24.58,36.25,0.04,-272.73,-272.73,-46,549,-935,18.4,0.9,-39.7,18.5,1.0,-39.1,5.73,2.39,-36.3,23.1
2012-03-04 00:23:00,0.0,1.9025,0.0008,402.42,0.26,-1.0,0.0,138.23,23.39,24.58,36.25,0.04,-272.73,-272.73,-47,549,-935,18.4,0.9,-39.6,18.5,1.0,-38.9,5.73,2.51,-36.3,23.1
2012-03-04 00:24:00,0.0,1.9024,0.0009,402.56,0.33,-1.0,0.0,138.23,23.39,24.58,36.25,0.04,-272.73,-272.73,-46,549,-935,18.4,0.9,-39.9,18.5,0.9,-39.4,5.73,2.37,-36.3,23.1
2012-03-04 00:25:00,0.0,1.9024,0.0010,402.41,0.29,-1.0,0.0,138.23,23.39,24.58,36.25,0.04,-272.73,-272.73,-47,549,-935,18.4,0.9,-40.1,18.5,0.9,-39.5,5.73,2.52,-36.3,23.0
2012-03-04 00:26:00,0.0,1.9029,0.0008,402.48,0.23,-1.0,0.0,138.23,23.40,24.57,36.25,0.04,-272.73,-272.73,-47,549,-935,18.4,0.9,-39.6,18.5,1.0,-39.0,5.73,2.38,-36.3,22.9
2012-03-04 00:27:00,0.0,1.9029,0.0008,402.52,0.26,-1.0,0.0,138.23,23.40,24.57,36.25,0.04,-272.73,-272.73,-46,549,-935,18.4,0.9,-39.7,18.5,1.0,-39.2,5.73,2.50,-36.3,23.0
2012-03-04 00:28:00,0.0,1.9027,0.0008,402.59,0.27,-1.0,0.0,138.23,23.40,24.58,36.24,0.04,-272.73,-272.73,-47,549,-935,18.4,0.9,-39.7,18.5,1.0,-39.2,5.73,2.41,-36.3,23.0
2012-03-04 00:29:00,0.0,1.9027,0.0009,402.65,0.22,-1.0,0.0,138.23,23.40,24.58,36.24,0.04,-272.73,-272.73,-47,549,-935,18.4,0.9,-39.8,18.5,1.0,-39.2,5.73,2.45,-36.3,23.0
2012-03-04 00:30:00,0.0,1.9029,0.0009,402.53,0.27,-1.0,0.0,138.23,23.40,24.57,36.25,0.04,-272.73,-272.73,-47,549,-935,18.4,0.9,-39.7,18.5,1.0,-39.2,5.73,2.46,-36.2,23.0
2012-03-04 00:31:00,0.0,1.9027,0.0010,402.67,0.28,-1.0,0.0,138.23,23.40,24.58,36.24,0.04,-272.72,-272.73,-47,549,-935,18.5,0.9,-39.6,18.5,1.0,-39.1,5.73,2.41,-36.3,23.0
2012-03-04 00:32:00,0.0,1.9028,0.0009,402.55,0.27,-1.0,0.0,138.23,23.41,24.57,36.25,0.04,-272.72,-272.73,-47,549,-935,18.5,1.1,-37.9,18.5,1.1,-37.5,5.73,2.50,-36.2,23.0
2012-03-04 00:33:00,0.0,1.9024,0.0009,402.32,0.25,-1.0,0.0,138.23,23.41,24.57,36.25,0.04,-272.73,-272.73,-47,549,-935,18.5,1.1,-38.1,18.5,1.1,-37.7,5.73,2.38,-36.2,23.0
2012-03-04 00:34:00,0.0,1.9024,0.0010,402.46,0.29,-1.0,0.0,138.23,23.41,24.57,36.24,0.04,-272.73,-272.73,-47,549,-935,18.5,1.0,-39.1,18.5,1.0,-38.5,5.73,2.52,-36.2,23.1
2012-03-04 00:35:00,0.0,1.9024,0.0009,402.44,0.31,-1.0,0.0,138.23,23.41,24.58,36.24,0.04,-272.73,-272.73,-47,550,-935,18.5,1.0,-39.2,18.5,1.0,-38.6,5.73,2.36,-36.2,23.1
2012-03-04 00:36:00,0.0,1.9030,0.0009,402.52,0.25,-1.0,0.0,138.23,23.41,24.58,36.25,0.04,-272.73,-272.73,-47,550,-935,18.5,1.0,-38.6,18.5,1.1,-38.1,5.73,2.52,-36.2,23.1
2012-03-04 00:37:00,0.0,1.9039,0.0007,402.54,0.25,-1.0,0.0,138.23,23.42,24.57,36.24,0.04,-272.73,-272.73,-47,550,-935,18.5,1.1,-38.0,18.5,1.1,-37.4,5.73,2.37,-36.2,23.1
2012-03-04 00:38:00,0.0,1.9035,0.0008,402.59,0.25,-1.0,0.0,138.23,23.42,24.57,36.25,0.04,-272.73,-272.73,-47,550,-935,18.5,1.0,-38.7,18.5,1.1,-38.2,5.73,2.51,-36.2,23.1
2012-03-04 00:39:00,0.0,1.9038,0.0009,402.69,0.28,-1.0,0.0,138.23,23.42,24.57,36.24,0.04,-272.73,-272.73,-47,550,-935,18.5,1.0,-38.9,18.6,1.0,-38.3,5.73,2.40,-36.2,23.1
2012-03-04 00:40:00,0.0,1.9032,0.0007,402.56,0.30,-1.0,0.0,138.23,23.42,24.58,36.24,0.04,-272.73,-272.73,-47,550,-935,18.5,1.0,-38.9,18.6,1.0,-38.3,5.73,2.48,-36.2,23.1
2012-03-04 00:41:00,0.0,1.9032,0.0008,402.42,0.27,-1.0,0.0,138.23,23.43,24.58,36.25,0.04,-272.73,-272.73,-47,550,-935,18.5,1.1,-38.0,18.6,1.1,-37.6,5.73,2.42,-36.2,23.1
2012-03-04 00:42:00,0.0,1.9041,0.0009,402.53,0.31,-1.0,0.0,138.23,23.43,24.57,36.25,0.04,-272.73,-272.73,-47,550,-935,18.5,1.1,-38.0,18.6,1.1,-37.4,5.73,2.46,-36.2,23.1
2012-03-04 00:43:00,0.0,1.9040,0.0010,402.68,0.29,-1.0,0.0,138.23,23.44,24.58,36.25,0.04,-272.73,-272.73,-47,550,-935,18.5,1.0,-38.6,18.6,1.1,-38.1,5.73,2.44,-36.2,23.1
2012-03-04 00:44:00,0.0,1.9037,0.0010,402.55,0.29,-1.0,0.0,138.23,23.44,24.57,36.24,0.04,-272.73,-272.73,-47,550,-935,18.5,1.0,-38.6,18.6,1.1,-38.0,5.73,2.43,-36.2,23.1
2012-03-04 00:45:00,0.0,1.9035,0.0009,402.41,0.27,-1.0,0.0,138.23,23.44,24.57,36.24,0.04,-272.73,-272.73,-47,550,-935,18.5,1.0,-38.6,18.6,1.1,-38.0,5.73,2.47,-36.2,23.1
2012-03-04 00:46:00,0.0,1.9024,0.0009,402.28,0.26,-1.0,0.0,138.23,23.44,24.58,36.24,0.04,-272.73,-272.73,-47,550,-935,18.5,1.0,-38.5,18.6,1.1,-38.0,5.73,2.40,-36.2,23.1
2012-03-04 00:47:00,0.0,1.9028,0.0009,402.18,0.31,-1.0,0.0,138.23,23.44,24.57,36.24,0.04,-272.73,-272.73,-47,550,-935,18.5,1.0,-38.6,18.6,1.1,-38.0,5.73,2.49,-36.2,23.1
2012-03-04 00:48:00,0.0,1.9029,0.0009,402.16,0.29,-1.0,0.0,138.23,23.44,24.58,36.25,0.04,-272.73,-272.73,-47,550,-935,18.5,1.0,-38.6,18.6,1.1,-38.0,5.73,2.38,-36.1,23.1
2012-03-04 00:49:00,0.0,1.9024,0.0009,402.23,0.25,-1.0,0.0,138.23,23.45,24.58,36.24,0.04,-272.73,-272.73,-47,550,-935,18.5,1.0,-38.6,18.6,1.1,-38.1,5.73,2.52,-36.1,23.1
2012-03-04 00:50:00,0.0,1.9025,0.0008,402.22,0.24,-1.0,0.0,138.23,23.45,24.57,36.25,0.04,-272.73,-272.73,-47,550,-935,18.5,1.0,-38.5,18.6,1.1,-38.1,5.73,2.37,-36.1,23.1
2012-03-04 00:51:00,0.0,1.9020,0.0009,402.19,0.25,-1.0,0.0,138.23,23.45,24.58,36.25,0.04,-272.73,-272.73,-47,550,-935,18.5,1.0,-38.5,18.6,1.1,-38.0,5.73,2.52,-36.1,23.1
2012-03-04 00:52:00,0.0,1.9026,0.0010,402.30,0.29,-1.0,0.0,138.23,23.45,24.57,36.25,0.04,-272.73,-272.73,-47,550,-935,18.5,1.0,-38.6,18.6,1.1,-38.0,5.73,2.37,-36.1,23.2
2012-03-04 00:53:00,0.0,1.9028,0.0009,402.22,0.24,-1.0,0.0,138.23,23.45,24.57,36.24,0.04,-272.73,-272.73,-47,550,-935,18.5,1.0,-38.6,18.6,1.1,-38.0,5.73,2.51,-36.1,23.1
2012-03-04 00:54:00,0.0,1.9026,0.0009,402.13,0.30,-1.0,0.0,138.23,23.45,24.58,36.25,0.04,-272.73,-272.73,-47,550,-935,18.5,1.0,-38.6,18.7,1.1,-38.0,5.73,2.39,-36.1,23.1
2012-03-04 00:55:00,0.0,1.9035,0.0008,402.26,0.32,-1.0,0.0,138.23,23.46,24.57,36.24,0.04,-272.73,-272.73,-47,550,-935,18.6,1.0,-38.8,18.7,1.0,-38.3,5.73,2.49,-36.1,23.2
2012-03-04 00:56:00,0.0,1.9035,0.0009,402.24,0.25,-1.0,0.0,138.23,23.47,24.57,36.25,0.04,-272.73,-272.73,-47,550,-935,18.6,1.0,-38.4,18.7,1.1,-37.8,5.73,2.40,-36.0,23.2
2012-03-04 00:57:00,0.0,1.9030,0.0009,402.42,0.27,-1.0,0.0,138.23,23.47,24.58,36.24,0.04,-272.73,-272.73,-47,550,-935,18.6,1.0,-38.7,18.7,1.0,-38.1,5.73,2.46,-36.0,23.2
2012-03-04 00:58:00,0.0,1.9037,0.0009,402.37,0.26,-1.0,0.0,138.23,23.47,24.57,36.24,0.04,-272.73,-272.73,-47,550,-935,18.6,1.0,-38.8,18.7,1.0,-38.3,5.73,2.43,-36.0,23.2
2012-03-04 00:59:00,0.0,1.9031,0.0008,402.38,0.27,-1.0,0.0,138.23,23.47,24.57,36.24,0.04,-272.73,-272.73,-47,550,-935,18.6,1.0,-38.8,18.7,1.0,-38.3,5.73,2.45,-36.0,23.2
2012-03-04 01:00:00,0.0,1.9026,0.0008,402.27,0.24,-1.0,0.0,138.23,23.48,24.57,36.24,0.04,-272.73,-272.73,-47,550,-935,18.6,1.0,-38.5,18.7,1.1,-38.1,5.73,2.46,-36.0,23.2
2012-03-04 01:01:00,0.0,1.9023,0.0009,402.24,0.25,-1.0,0.0,138.23,23.48,24.57,36.24,0.04,-272.73,-272.73,-47,551,-935,18.6,1.0,-38.8,18.7,1.0,-38.2,5.73,2.42,-36.0,23.2
2012-03-04 01:02:00,0.0,1.9022,0.0008,402.24,0.25,-1.0,0.0,138.23,23.48,24.58,36.24,0.04,-272.73,-272.73,-47,550,-935,18.6,1.0,-38.8,18.7,1.1,-38.1,5.73,2.47,-36.0,23.2
2012-03-04 01:03:00,0.0,1.9024,0.0008,402.20,0.27,-1.0,0.0,138.23,23.48,24.57,36.24,0.04,-272.73,-272.73,-47,550,-935,18.6,1.0,-38.8,18.7,1.1,-38.0,5.73,2.40,-36.0,23.2
2012-03-04 01:04:00,0.0,1.9019,0.0008,402.27,0.26,-1.0,0.0,138.23,23.48,24.58,36.25,0.04,-272.73,-272.73,-47,550,-935,18.6,1.0,-38.8,18.7,1.1,-38.0,5.73,2.50,-36.0,23.3
2012-03-04 01:05:00,0.0,1.9025,0.0008,402.22,0.29,-1.0,0.0,138.23,23.48,24.58,36.24,0.04,-272.73,-272.72,-47,550,-935,18.6,1.0,-38.8,18.7,1.1,-38.0,5.73,2.38,-36.0,23.3
2012-03-04 01:06:00,0.0,1.9032,0.0011,402.30,0.27,-1.0,0.0,138.23,23.49,24.57,36.24,0.04,-272.73,-272.73,-47,550,-935,18.6,1.0,-38.8,18.7,1.1,-38.0,5.73,2.52,-36.0,23.3
2012-03-04 01:07:00,0.0,1.9029,0.0009,402.30,0.28,-1.0,0.0,138.23,23.49,24.57,36.24,0.04,-272.73,-272.73,-47,551,-935,18.6,1.0,-38.8,18.7,1.1,-38.0,5.73,2.37,-36.0,23.3
2012-03-04 01:08:00,0.0,1.9030,0.0009,402.19,0.28,-1.0,0.0,138.23,23.50,24.57,36.25,0.04,-272.73,-272.73,-47,551,-935,18.6,1.0,-38.8,18.7,1.1,-38.0,5.73,2.52,-35.9,23.3
2012-03-04 01:09:00,0.0,1.9026,0.0008,402.26,0.24,-1.0,0.0,138.23,23.50,24.57,36.24,0.04,-272.73,-272.73,-47,551,-935,18.6,1.0,-38.8,18.7,1.1,-38.0,5.73,2.36,-35.9,23.3
2012-03-04 01:10:00,0.0,1.9025,0.0008,402.20,0.30,-1.0,0.0,138.23,23.50,24.57,36.24,0.04,-272.72,-272.73,-47,551,-935,18.6,1.0,-39.0,18.7,1.0,-38.1,5.73,2.52,-35.9,23.3
2012-03-04 01:11:00,0.0,1.9030,0.0009,402.25,0.30,-1.0,0.0,138.23,23.51,24.57,36.24,0.04,-272.73,-272.73,-47,551,-935,18.6,0.9,-39.2,18.7,1.0,-38.4,5.73,2.37,-35.9,23.3
2012-03-04 01:12:00,0.0,1.9029,0.0010,402.26,0.26,-1.0,0.0,138.23,23.51,24.57,36.24,0.04,-272.73,-272.73,-47,551,-935,18.6,0.9,-39.5,18.7,1.0,-38.8,5.73,2.51,-35.9,23.3
2012-03-04 01:13:00,0.0,1.9026,0.0008,402.19,0.27,-1.0,0.0,138.23,23.51,24.57,36.25,0.04,-272.72,-272.73,-47,551,-935,18.6,0.9,-39.6,18.7,1.0,-38.8,5.73,2.38,-35.9,23.3
2012-03-04 01:14:00,0.0,1.9035,0.0009,402.19,0.27,-1.0,0.0,138.23,23.52,24.57,36.25,0.04,-272.73,-272.73,-47,551,-935,18.6,0.9,-39.6,18.7,1.0,-39.0,5.73,2.49,-35.9,23.4
2012-03-04 01:15:00,0.0,1.9030,0.0009,402.20,0.30,-1.0,0.0,138.23,23.52,24.58,36.25,0.04,-272.73,-272.73,-47,551,-935,18.6,0.9,-39.6,18.7,0.9,-39.0,5.73,2.40,-35.9,23.3
2012-03-04 01:16:00,0.0,1.9033,0.0009,402.25,0.29,-1.0,0.0,138.23,23.52,24.57,36.24,0.04,-272.73,-272.73,-47,551,-935,18.7,0.9,-39.6,18.7,1.0,-39.0,5.73,2.48,-35.8,23.3
2012-03-04 01:17:00,0.0,1.9037,0.0009,402.53,0.30,-1.0,0.0,138.22,23.53,24.58,36.25,0.04,-272.73,-272.73,-47,551,-935,18.6,0.9,-39.6,18.7,0.9,-39.0,5.73,2.41,-35.8,23.3
2012-03-04 01:18:00,0.0,1.9038,0.0008,402.49,0.30,-1.0,0.0,138.23,23.53,24.57,36.25,0.04,-272.73,-272.73,-47,551,-935,18.7,0.9,-39.6,18.7,0.9,-39.1,5.73,2.47,-35.8,23.4
2012-03-04 01:19:00,0.0,1.9041,0.0010,402.66,0.30,-1.0,0.0,138.23,23.53,24.57,36.25,0.23,-271.20,-272.68,-47,551,-935,18.7,0.9,-39.7,18.7,1.0,-39.0,5.42,2.50,-39.3,23.4
2012-03-04 01:20:00,0.0,1.9048,0.0009,402.85,0.22,-1.0,0.0,138.23,23.54,24.57,36.25,0.04,-272.73,-272.73,-47,551,-935,18.7,0.9,-39.6,18.7,1.0,-39.0,5.73,2.46,-35.8,23.4
2012-03-04 01:21:00,0.0,1.9048,0.0009,402.77,0.27,-1.0,0.0,138.22,23.54,24.57,36.25,0.04,-272.73,-272.73,-47,551,-935,18.7,0.9,-39.6,18.7,0.9,-39.1,5.73,2.43,-35.8,23.4
2012-03-04 01:22:00,0.0,1.9054,0.0010,402.69,0.26,-1.0,0.0,138.23,23.55,24.57,36.25,0.04,-272.73,-272.73,-47,551,-935,18.7,0.9,-39.6,18.7,1.0,-39.0,5.73,2.44,-35.8,23.4
2012-03-04 01:23:00,0.0,1.9047,0.0008,402.48,0.27,-1.0,0.0,138.23,23.55,24.57,36.25,0.04,-272.73,-272.73,-47,551,-935,18.7,0.9,-39.6,18.7,1.0,-39.0,5.73,2.45,-35.8,23.4
2012-03-04 01:24:00,0.0,1.9056,0.0008,402.39,0.32,-1.0,0.0,138.23,23.56,24.57,36.25,0.04,-272.73,-272.73,-47,551,-935,18.7,0.9,-39.6,18.7,0.9,-39.4,5.73,2.42,-35.8,23.4
2012-03-04 01:25:00,0.0,1.9054,0.0011,402.46,0.31,-1.0,0.0,138.22,23.57,24.57,36.25,0.04,-272.73,-272.73,-47,551,-935,18.7,0.9,-39.9,18.8,0.9,-39.3,5.73,2.47,-35.8,23.5
2012-03-04 01:26:00,0.0,1.9048,0.0009,402.44,0.27,-1.0,0.0,138.23,23.57,24.58,36.24,0.04,-272.73,-272.73,-47,551,-935,18.7,0.9,-39.9,18.8,0.9,-39.3,5.73,2.42,-35.8,23.4
2012-03-04 01:27:00,0.0,1.9062,0.0010,402.76,0.28,-1.0,0.0,138.22,23.58,24.58,36.25,0.04,-272.73,-272.73,-47,551,-935,18.7,0.9,-39.9,18.8,0.9,-39.3,5.73,2.46,-35.8,23.5
2012-03-04 01:28:00,0.0,1.9055,0.0010,402.70,0.26,-1.0,0.0,138.22,23.58,24.57,36.25,0.04,-272.73,-272.73,-47,551,-935,18.7,0.9,-39.9,18.8,0.9,-39.3,5.73,2.43,-35.7,23.5
2012-03-04 01:29:00,0.0,1.9054,0.0008,402.73,0.29,-1.0,0.0,138.22,23.59,24.57,36.24,0.04,-272.73,-272.73,-47,551,-935,18.7,0.9,-39.9,18.8,0.9,-39.3,5.73,2.45,-35.7,23.5
2012-03-04 01:30:00,0.0,1.9051,0.0010,402.66,0.29,-1.0,0.0,138.22,23.59,24.57,36.24,0.04,-272.73,-272.73,-47,551,-935,18.7,0.9,-39.9,18.8,0.9,-39.3,5.73,2.44,-35.7,23.5
2012-03-04 01:31:00,0.0,1.9054,0.0010,402.85,0.36,-1.0,0.0,138.22,23.59,24.57,36.24,0.04,-272.73,-272.73,-47,551,-935,18.7,0.9,-39.5,18.8,0.9,-39.1,5.73,2.43,-35.7,23.6
2012-03-04 01:32:00,0.0,1.9052,0.0008,402.87,0.29,-1.0,0.0,138.22,23.60,24.57,36.24,0.04,-272.73,-272.73,-47,551,-935,18.7,0.9,-39.9,18.8,0.9,-39.3,5.73,2.46,-35.7,23.5
2012-03-04 01:33:00,0.0,1.9046,0.0010,402.78,0.23,-1.0,0.0,138.22,23.60,24.57,36.24,0.04,-272.73,-272.73,-47,551,-935,18.7,0.9,-39.9,18.8,0.9,-39.3,5.73,2.40,-35.7,23.6
2012-03-04 01:34:00,0.0,1.9051,0.0009,402.58,0.25,-1.0,0.0,138.22,23.61,24.57,36.25,0.04,-272.73,-272.73,-47,551,-935,18.7,0.9,-39.9,18.8,0.9,-39.3,5.73,2.48,-35.7,23.5
2012-03-04 01:35:00,0.0,1.9047,0.0010,402.44,0.28,-1.0,0.0,138.22,23.61,24.58,36.25,0.04,-272.73,-272.73,-47,551,-935,18.7,0.9,-39.8,18.8,0.9,-39.2,5.73,2.39,-35.7,23.6
2012-03-04 01:36:00,0.0,1.9054,0.0009,402.61,0.28,-1.0,0.0,138.22,23.62,24.57,36.25,0.04,-272.73,-272.72,-47,551,-935,18.8,0.9,-39.9,18.8,0.9,-39.3,5.73,2.50,-35.7,23.6
2012-03-04 01:37:00,0.0,1.9056,0.0009,402.54,0.27,-1.0,0.0,138.22,23.63,24.57,36.24,0.04,-272.73,-272.73,-47,552,-935,18.8,0.9,-39.8,18.9,0.9,-39.3,5.73,2.37,-35.6,23.6
2012-03-04 01:38:00,0.0,1.9047,0.0009,402.53,0.26,-1.0,0.0,138.22,23.64,24.58,36.24,0.04,-272.73,-272.73,-47,551,-935,18.8,0.9,-39.8,18.9,0.9,-39.3,5.73,2.51,-35.6,23.7
2012-03-04 01:39:00,0.0,1.9045,0.0009,402.84,0.30,-1.0,0.0,138.22,23.64,24.57,36.24,0.04,-272.73,-272.73,-47,551,-935,18.8,0.9,-39.9,18.9,0.9,-39.3,5.73,2.37,-35.6,23.7
2012-03-04 01:40:00,0.0,1.9049,0.0010,402.95,0.27,-1.0,0.0,138.22,23.65,24.57,36.24,0.04,-272.73,-272.73,-47,552,-935,18.8,0.9,-39.6,18.9,0.9,-39.2,5.73,2.51,-35.6,23.7
2012-03-04 01:41:00,0.0,1.9053,0.0009,402.89,0.31,-1.0,0.0,138.22,23.65,24.57,36.24,0.04,-272.73,-272.73,-47,551,-935,18.8,0.9,-39.5,18.9,1.0,-38.9,5.73,2.37,-35.6,23.7
2012-03-04 01:42:00,0.0,1.9049,0.0010,403.24,0.23,-1.0,0.0,138.22,23.66,24.57,36.23,0.04,-272.73,-272.73,-47,552,-935,18.8,0.9,-39.5,18.9,0.9,-38.9,5.73,2.51,-35.6,23.7
2012-03-04 01:43:00,0.0,1.9039,0.0009,403.12,0.28,-1.0,0.0,138.22,23.66,24.58,36.24,0.04,-272.73,-272.73,-47,552,-935,18.8,0.9,-39.5,18.9,1.0,-38.9,5.73,2.37,-35.6,23.6
2012-03-04 01:44:00,0.0,1.9038,0.0008,402.87,0.32,-1.0,0.0,138.22,23.67,24.58,36.25,0.04,-272.73,-272.73,-47,552,-935,18.8,0.9,-39.5,18.9,0.9,-38.9,5.73,2.50,-35.6,23.7
2012-03-04 01:45:00,0.0,1.9051,0.0011,402.82,0.32,-1.0,0.0,138.22,23.68,24.58,36.24,0.04,-272.73,-272.73,-47,552,-935,18.8,0.9,-39.3,18.9,0.9,-38.9,5.73,2.38,-35.6,23.7
2012-03-04 01:46:00,0.0,1.9064,0.0009,402.97,0.25,-1.0,0.0,138.22,23.68,24.57,36.24,0.04,-272.73,-272.73,-47,552,-935,18.9,0.9,-39.2,18.9,1.0,-38.9,5.73,2.50,-35.6,23.7
2012-03-04 01:47:00,0.0,1.9056,0.0013,402.93,0.24,-1.0,0.0,138.22,23.69,24.57,36.24,0.04,-272.73,-272.73,-47,552,-935,18.9,0.9,-39.2,18.9,1.0,-38.9,5.73,2.38,-35.6,23.7
2012-03-04 01:48:00,0.0,1.9046,0.0009,402.82,0.26,-1.0,0.0,138.22,23.69,24.57,36.24,0.04,-272.73,-272.73,-47,552,-935,18.9,0.9,-39.4,18.9,1.0,-38.9,5.73,2.48,-35.6,23.7
2012-03-04 01:49:00,0.0,1.9049,0.0008,402.56,0.27,-1.0,0.0,138.22,23.69,24.57,36.24,0.04,-272.73,-272.73,-47,552,-935,18.9,0.9,-39.4,18.9,0.9,-38.9,5.73,2.40,-35.6,23.7
2012-03-04 01:50:00,0.0,1.9045,0.0008,402.70,0.28,-1.0,0.0,138.22,23.70,24.58,36.24,0.04,-272.73,-272.73,-47,552,-935,18.9,0.9,-39.3,18.9,1.0,-38.7,5.73,2.47,-35.6,23.7
2012-03-04 01:51:00,0.0,1.9057,0.0009,402.73,0.29,-1.0,0.0,138.22,23.71,24.57,36.23,0.04,-272.73,-272.73,-47,552,-935,18.9,0.9,-39.2,19.0,1.0,-38.7,5.73,2.42,-35.5,23.7
2012-03-04 01:52:00,0.0,1.9053,0.0009,402.78,0.22,-1.0,0.0,138.22,23.72,24.57,36.24,0.04,-272.73,-272.73,-47,552,-935,18.9,0.9,-39.2,19.0,1.0,-38.7,5.73,2.45,-35.5,23.7
2012-03-04 01:53:00,0.0,1.9045,0.0008,402.69,0.31,-1.0,0.0,138.22,23.72,24.57,36.24,0.04,-272.73,-272.73,-47,552,-936,18.9,0.9,-39.2,19.0,1.0,-38.6,5.73,2.44,-35.5,23.7
2012-03-04 01:54:00,0.0,1.9039,0.0009,402.53,0.26,-1.0,0.0,138.22,23.72,24.57,36.24,0.04,-272.73,-272.73,-47,552,-935,18.9,0.9,-39.2,19.0,1.0,-38.6,5.73,2.42,-35.6,23.7
2012-03-04 01:55:00,0.0,1.9036,0.0010,402.50,0.25,-1.0,0.0,138.22,23.73,24.58,36.24,0.04,-272.73,-272.73,-47,552,-935,18.9,0.9,-39.2,19.0,1.0,-38.7,5.73,2.47,-35.5,23.7
2012-03-04 01:56:00,0.0,1.9040,0.0010,402.42,0.22,-1.0,0.0,138.22,23.73,24.57,36.24,0.04,-272.73,-272.73,-47,553,-935,18.9,0.9,-39.2,19.0,1.0,-38.6,5.73,2.40,-35.5,23.7
2012-03-04 01:57:00,0.0,1.9043,0.0011,402.54,0.24,-1.0,0.0,138.22,23.74,24.57,36.24,0.04,-272.73,-272.73,-47,552,-935,18.9,0.9,-39.2,19.0,1.0,-38.6,5.73,2.49,-35.5,23.8
2012-03-04 01:58:00,0.0,1.9036,0.0009,402.46,0.26,-1.0,0.0,138.22,23.74,24.57,36.24,0.04,-272.73,-272.73,-47,552,-936,19.0,0.9,-39.1,19.0,1.0,-38.7,5.73,2.38,-35.5,23.8
2012-03-04 01:59:00,0.0,1.9038,0.0011,402.40,0.26,-1.0,0.0,138.22,23.74,24.57,36.24,0.04,-272.73,-272.73,-47,553,-936,18.9,0.9,-39.2,19.0,1.0,-38.6,5.73,2.51,-35.5,23.7
2012-03-04 02:00:00,0.0,1.9044,0.0009,402.52,0.23,-1.0,0.0,138.22,23.75,24.58,36.23,0.04,-272.73,-272.73,-47,552,-936,18.9,0.9,-39.1,19.0,1.0,-38.6,5.73,2.36,-35.5,23.7
2012-03-04 02:01:00,0.0,1.9042,0.0011,402.51,0.23,-1.0,0.0,138.22,23.76,24.58,36.24,0.04,-272.73,-272.73,-47,553,-935,19.0,0.9,-39.0,19.1,1.0,-38.5,5.73,2.51,-35.5,23.7
2012-03-04 02:02:00,0.0,1.9032,0.0009,402.59,0.26,-1.0,0.0,138.22,23.76,24.58,36.24,0.04,-272.73,-272.73,-47,553,-936,19.0,0.9,-38.9,19.0,1.0,-38.5,5.73,2.36,-35.5,23.7
2012-03-04 02:03:00,0.0,1.9042,0.0011,402.58,0.23,-1.0,0.0,138.22,23.77,24.57,36.24,0.04,-272.73,-272.73,-47,553,-936,19.0,0.9,-39.0,19.1,1.0,-38.6,5.73,2.52,-35.5,23.7
2012-03-04 02:04:00,0.0,1.9051,0.0008,402.58,0.28,-1.0,0.0,138.22,23.77,24.58,36.24,0.04,-272.73,-272.73,-47,553,-936,19.0,0.9,-39.2,19.1,1.0,-38.6,5.73,2.36,-35.5,23.7
2012-03-04 02:05:00,0.0,1.9055,0.0011,402.64,0.30,-1.0,0.0,138.22,23.78,24.57,36.24,0.04,-272.73,-272.73,-47,553,-935,19.0,0.9,-39.2,19.1,1.0,-38.6,5.73,2.50,-35.5,23.7
2012-03-04 02:06:00,0.0,1.9053,0.0011,402.54,0.26,-1.0,0.0,138.22,23.79,24.57,36.24,0.04,-272.73,-272.73,-47,553,-935,19.0,0.9,-39.2,19.1,1.0,-38.6,5.73,2.37,-35.5,23.7
2012-03-04 02:07:00,0.0,1.9063,0.0008,402.45,0.23,-1.0,0.0,138.22,23.80,24.57,36.24,0.04,-272.72,-272.73,-47,553,-936,19.0,0.9,-39.2,19.1,1.0,-38.7,5.73,2.49,-35.5,23.8
2012-03-04 02:08:00,0.0,1.9055,0.0009,402.42,0.27,-1.0,0.0,138.22,23.80,24.58,36.24,0.04,-272.73,-272.73,-47,553,-936,19.0,0.9,-39.1,19.1,0.9,-38.9,5.73,2.39,-35.5,23.8
2012-03-04 02:09:00,0.0,1.9059,0.0010,402.57,0.27,-1.0,0.0,138.22,23.81,24.57,36.23,0.04,-272.73,-272.73,-47,553,-936,19.0,0.9,-39.1,19.1,1.0,-38.7,5.73,2.48,-35.4,23.8
2012-03-04 02:10:00,0.0,1.9054,0.0008,402.49,0.26,-1.0,0.0,138.22,23.82,24.58,36.24,0.04,-272.73,-272.73,-47,553,-936,19.0,0.9,-39.2,19.1,1.0,-38.6,5.73,2.40,-35.4,23.8
2012-03-04 02:11:00,0.0,1.9051,0.0009,402.54,0.31,-1.0,0.0,138.22,23.82,24.57,36.24,0.04,-272.72,-272.73,-47,553,-936,19.0,0.9,-39.1,19.1,1.0,-38.5,5.73,2.46,-35.5,23.9
2012-03-04 02:12:00,0.0,1.9045,0.0007,402.56,0.30,-1.0,0.0,138.22,23.82,24.58,36.24,0.04,-272.73,-272.73,-47,553,-936,19.1,0.9,-39.1,19.1,1.0,-38.6,5.73,2.43,-35.5,23.8
2012-03-04 02:13:00,0.0,1.9043,0.0009,402.51,0.26,-1.0,0.0,138.22,23.83,24.57,36.24,0.04,-272.73,-272.73,-47,553,-936,19.1,0.9,-39.1,19.1,1.0,-38.6,5.73,2.43,-35.5,23.8
2012-03-04 02:14:00,0.0,1.9057,0.0008,402.61,0.29,-1.0,0.0,138.22,23.84,24.57,36.23,0.04,-272.73,-272.73,-47,553,-936,19.1,0.9,-39.1,19.1,1.0,-38.5,5.73,2.45,-35.4,23.8
2012-03-04 02:15:00,0.0,1.9055,0.0010,402.58,0.26,-1.0,0.0,138.22,23.84,24.57,36.24,0.04,-272.73,-272.73,-47,553,-936,19.1,0.9,-38.9,19.1,1.0,-38.6,5.73,2.41,-35.5,23.8
2012-03-04 02:16:00,0.0,1.9055,0.0010,402.45,0.31,-1.0,0.0,138.22,23.85,24.57,36.24,0.04,-272.73,-272.73,-47,553,-936,19.1,1.0,-38.8,19.1,1.0,-38.4,5.73,2.46,-35.5,23.7
2012-03-04 02:17:00,0.0,1.9059,0.0008,402.57,0.34,-1.0,0.0,138.22,23.86,24.57,36.23,0.04,-272.72,-272.73,-47,553,-936,19.1,1.0,-38.8,19.1,1.0,-38.3,5.73,2.41,-35.5,23.8
2012-03-04 02:18:00,0.0,1.9054,0.0008,402.51,0.27,-1.0,0.0,138.22,23.86,24.57,36.24,0.04,-272.73,-272.73,-47,553,-936,19.1,0.9,-38.8,19.1,1.0,-38.2,5.73,2.47,-35.4,23.8